2E1HJE-10 Weather Reports


Display with metric or nautical units.
time (UTC)temp
F
wind
direction
speed
MPH
gust
MPH
rain 1hr
in
rain 24hr
in
rain mn
in
humidity
%
barometer
mb
20260507205827 46 114 4.0 9.0 0.00 0.10 0.10 83 1017.1
20260507204829 46 114 4.0 9.0 0.00 0.10 0.10 83 1017.1
20260507203827 48 110 4.0 9.0 0.00 0.10 0.10 83 1017.1
20260507201827 49 108 5.0 11.0 0.00 0.10 0.10 82 1017.0
20260507194828 50 105 5.0 12.0 0.00 0.10 0.10 69 1016.8
20260507191827 52 114 6.0 12.0 0.00 0.10 0.10 69 1016.6
20260507190827 53 118 6.0 12.0 0.00 0.10 0.10 69 1016.6
20260507185828 54 120 6.0 14.0 0.00 0.10 0.10 64 1016.2
20260507152827 56 81 9.0 16.0 0.00 0.12 0.10 63 1016.5
20260507134827 56 77 8.0 10.0 0.00 0.10 0.08 64 1016.6
20260507130827 55 42 5.0 10.0 0.00 0.10 0.08 64 1016.6
20260507125828 54 27 6.0 9.0 0.02 0.10 0.08 79 1016.8
20260507123827 55 52 5.0 9.0 0.00 0.08 0.06 63 1016.8
20260507120827 54 28 3.0 8.0 0.00 0.08 0.06 63 1016.8
20260507113827 54 25 4.0 12.0 0.00 0.12 0.10 71 1016.6
20260507112827 54 24 5.0 12.0 0.00 0.12 0.10 71 1016.6
20260507111827 54 24 5.0 12.0 0.00 0.12 0.10 71 1016.6
20260507104827 54 81 3.0 9.0 0.00 0.07 0.05 67 1016.6
20260507103827 54 65 3.0 9.0 0.00 0.07 0.05 67 1016.6
20260507081827 52 58 3.0 8.0 0.00 0.06 0.04 77 1016.7